User: anonymous   Login
Location: Plymouth
(43.7570°N, 71.6890°W)
Time: 16:46:41
(UTC-04:00)
Language:

Cosmos 2016 Rocket - Orbit

View from above orbital plane
View from above orbital plane
View from above satellite
View from above satellite

Ground track
Ground track

The orbit data is extracted from the following two-line orbital elements,

1 19922U 89028B   16243.58657815 -.00000016  00000-0 -31769-4 0  9990
2 19922  82.9570 282.3541 0035961 341.7885 171.3983 13.77178644377233
Epoch (UTC): 30 August 2016 14:04:40
Eccentricity: 0.0035961
inclination: 82.9570°
perigee height: 947 km
apogee height: 1000 km
right ascension of ascending node: 282.3541°
argument of perigee: 341.7885°
revolutions per day: 13.77178644
mean anomaly at epoch: 171.3983°
orbit number at epoch: 37723

The dashed part of the orbit path shows where the satellite is in the earth's shadow,  

DLR